Location: Saint Louis
(38.6272°N, 90.1978°W)
Time: 16:50:45
(UTC-05:00)

ISS - Pass Details

Date: 04 June 2013
Orbit: 402 x 404 km, 51.6° (Epoch: 31 May)

Event Time Altitude Azimuth Distance (km) Brightness Sun altitude
Rises 23:45:33 0° 318° (NW) 2,318 1.6 -26.4°
Reaches altitude 10° 23:48:41 10° 351° (N) 1,458 0.5 -26.6°
Maximum altitude 23:50:04 12° 16° (NNE) 1,337 -0.1 -26.7°
Enters shadow 23:51:11 11° 37° (NE) 1,419 -0.2 -26.8°
